Tracking 20719 objects as of 26-May-2020
HD Live streaming from Space Station
objects crossing your sky now

LEASAT 5

Track LEASAT 5 now!
LEASAT 5 is classified as:


NORAD ID: 20410
Int'l Code: 1990-002B
Perigee: 35,945.7 km
Apogee: 36,023.7 km
Inclination: 11.7 °
Period: 1,445.9 minutes
Semi major axis: 42355 km
RCS: 12.5892 m2 (large)
Launch date: January 9, 1990
Source: United States (US)
Launch site: AIR FORCE EASTERN TEST RANGE (AFETR)

Ultra High Frequency (UHF) satellite communications services to Australia; leased at end of use by U.S. Navy to Royal Australian Navy.
aabbcc
Your satellite tracking list
Your tracking list is empty




NASA's NSSDC Master Catalog

Two Line Element Set (TLE):
1 20410U 90002B   20146.77081208 +.00000089 +00000-0 +00000-0 0  9991
2 20410 011.7152 003.7755 0009208 021.2381 351.3636 00.99594459096386
Source of the keplerian elements: AFSPC